Tracking 19245 objects as of 18-Aug-2018
HD Live streaming from Space Station
objects crossing your sky now

FENGYUN 1C DEB

Track FENGYUN 1C DEB now!
10-day predictions


NORAD ID: 29855
Int'l Code: 1999-025EZ
Perigee: 783.8 km
Apogee: 1,100.4 km
Inclination: 98.2 °
Period: 103.7 minutes
Semi major axis: 7313 km
RCS: 0.043 m2 (small)
Launch date: May 10, 1999
Source: People's Republic of China (PRC)
Launch site: Taiyaun Space Center, China (TSC)

Note: This is SATELLITE DEBRIS
aabbcc
Your satellite tracking list
Your tracking list is empty




NASA's NSSDC Master Catalog

Two Line Element Set (TLE):
1 29855U 99025EZ  18229.88183611 +.00000504 +00000-0 +37607-3 0  9997
2 29855 098.1693 088.9385 0216445 317.6000 163.1079 13.88192862585167
Source of the keplerian elements: AFSPC